Location: Góry Miechowskie
(50.3599°N, 20.1803°E)
Time: 22:02:40
(UTC+00:00)

S-56A Canister/Altair - Pass Details

Date: 16 September 2024
Orbit: 636 x 2487 km, 38.9° (Epoch: 09 October)

Event Time Altitude Azimuth Distance (km) Brightness Sun altitude
Rises 16:56:12 0° 220° (SW) 3,178 11.2 -1.8°
Reaches altitude 10° 16:58:49 10° 205° (SSW) 2,417 10.4 -2.2°
Maximum altitude 17:03:11 23° 154° (SSE) 1,971 9.3 -2.9°
Drops below altitude 10° 17:08:50 10° 106° (ESE) 3,222 10.0 -3.8°
Enters shadow 17:10:58 - 98° (E) 3,898 10.4 -4.2°
Sets 17:12:57 0° 94° (E) 4,552 - -4.5°
